RH
29 26 27 28 27 27 26 25 25 28 33 33 27 24 24 25 25 25 23 22 22 20 17 17 17 15 15 14 13 13 12 11 11 11 11 11 11 12 12 13 14 15 15 15 16 16 17 18 17 17 17 17 17 16 16 15 13 12 11 11 11 11 10 10 11 12 13 15 15 15 16 15 15 14
34 30 30 30 28 27 25 22 23 28 33 34 29 26 25 24 22 21 20 19 19 18 16 15 15 14 13 12 12 12 11 10 10 11 11 12 12 12 13 14 15 16 17 18 18 18 18 18 17 17 17 17 17 16 15 14 12 11 10 10 11 11 11 11 11 11 11 11 11 11 11 11 11 12
35 31 28 27 27 27 24 22 23 25 30 34 30 25 22 21 19 18 16 15 16 16 15 14 14 13 12 11 11 10 10 11 11 12 12 12 12 13 14 15 16 17 19 20 21 21 21 19 19 18 18 18 18 17 16 14 12 10 9 9 9 10 11 12 13 13 13 13 13 12 12 13 15 17
29 26 23 22 23 22 20 20 20 20 27 31 27 21 20 20 18 17 15 15 16 16 16 16 14 13 12 11 10 10 11 11 12 13 13 12 13 14 15 16 17 18 19 20 21 22 21 21 20 20 20 20 19 17 16 14 12 11 9 9 9 9 10 11 13 14 15 16 15 14 14 15 18 20
22 21 20 20 17 14 15 19 20 22 26 28 23 19 19 18 17 16 16 16 17 17 18 17 16 15 13 12 12 11 11 12 13 13 13 13 13 14 16 17 18 18 18 19 19 19 20 20 20 20 21 20 20 18 17 15 13 12 10 9 9 10 11 12 13 15 16 17 17 17 16 17 19 20
19 19 19 17 12 12 17 20 21 22 24 25 23 20 18 18 18 18 18 18 18 19 19 18 18 18 16 15 14 13 13 13 14 14 14 14 14 15 16 16 17 18 17 17 18 18 19 19 19 19 19 19 20 19 18 16 15 13 12 11 10 10 11 13 15 16 17 18 18 19 19 19 19 19
20 19 19 17 13 14 18 21 21 22 23 25 25 21 20 21 21 20 20 21 21 20 21 21 20 20 20 19 17 16 15 14 15 15 15 15 15 15 15 16 16 16 16 17 17 18 18 19 19 19 19 20 20 20 19 19 17 16 15 13 11 11 12 14 15 16 17 18 18 18 18 18 17 17
22 18 15 15 16 17 20 21 20 21 23 23 23 23 22 23 23 22 21 23 24 24 24 23 23 23 23 22 21 20 18 18 17 17 17 17 17 16 16 16 16 16 16 17 17 18 18 17 16 16 17 18 19 20 20 20 20 19 18 16 14 13 13 14 15 16 18 19 18 17 17 17 16 16
24 18 13 13 15 20 29 32 24 17 19 21 22 24 23 23 24 24 24 25 27 28 27 26 25 26 26 25 24 23 22 21 21 20 21 20 20 19 18 17 17 17 17 17 17 18 17 16 14 14 15 15 16 18 20 22 23 22 21 20 18 16 15 16 16 17 21 22 21 20 20 21 19 17
32 24 17 14 13 15 28 40 31 18 19 25 27 26 25 25 25 25 26 26 27 29 29 28 28 28 29 27 26 25 25 24 24 24 24 24 24 23 21 20 19 18 18 18 18 17 16 16 15 15 15 16 15 17 19 21 21 21 22 21 20 18 18 18 17 18 21 23 24 24 24 24 23 21
38 35 29 25 21 17 20 29 27 19 22 31 35 35 33 31 30 30 30 29 28 29 29 30 29 29 30 29 28 27 27 27 28 28 27 28 28 27 26 25 24 23 23 22 21 21 21 20 20 20 21 19 19 19 19 19 19 18 18 18 18 18 18 19 19 19 19 21 22 23 24 25 26 28
38 40 40 37 34 32 29 29 28 26 28 32 36 38 37 36 34 34 35 34 32 31 30 31 31 31 31 31 30 30 29 29 29 30 30 31 31 31 31 31 30 30 31 30 28 28 27 27 28 28 27 26 26 26 26 26 25 24 23 23 23 23 24 25 26 27 27 28 30 31 33 35 38 43
42 43 45 46 46 47 46 44 42 41 40 39 39 39 38 38 38 38 38 37 36 35 34 33 34 34 33 33 32 32 32 32 31 31 33 34 34 34 35 37 39 39 37 36 36 36 35 34 35 35 36 36 34 33 33 33 32 32 31 31 32 32 32 32 34 36 38 39 42 45 49 53 57 61
50 50 53 57 58 58 58 57 54 52 50 47 46 45 44 44 43 41 41 40 40 40 39 37 37 35 35 34 34 33 33 33 33 34 35 36 37 37 37 40 45 46 45 43 41 42 42 40 40 41 43 43 42 41 40 38 39 41 41 40 40 41 40 39 43 49 53 54 55 57 61 66 71 73
60 60 59 59 59 59 58 57 57 56 54 51 49 49 50 50 49 47 46 45 46 45 44 42 40 37 36 35 35 34 34 34 34 34 36 36 36 36 36 37 40 42 43 44 43 44 44 43 43 43 43 45 46 46 46 47 53 59 62 60 57 56 55 54 56 62 66 68 70 70 71 75 76 75
59 59 58 55 55 56 56 55 55 55 55 54 53 54 55 55 56 56 54 52 50 48 46 44 41 39 38 37 37 37 37 36 35 34 35 35 35 36 37 37 39 40 41 43 45 46 47 47 46 44 45 47 49 54 61 66 70 73 75 77 78 78 75 70 70 74 78 80 82 83 83 82 80 79
53 57 59 60 62 62 60 58 55 53 55 57 59 60 61 62 63 61 58 54 50 47 45 44 43 42 41 41 41 42 41 39 36 34 34 34 35 37 38 40 43 44 46 48 49 48 51 54 53 50 49 48 51 65 76 77 76 78 81 87 92 92 86 80 81 87 89 90 90 90 90 87 82 80
52 57 65 72 75 71 65 61 59 60 63 66 67 67 66 66 64 61 57 54 50 49 50 50 49 48 47 48 47 46 45 43 39 36 35 36 37 40 43 47 50 51 54 58 60 59 62 66 64 61 62 62 60 68 77 80 83 88 93 99 100 95 93 92 91 92 93 93 94 95 93 90 85 82
52 54 63 77 87 85 77 74 73 74 74 73 74 74 71 68 64 60 58 56 53 53 54 56 57 57 56 55 54 52 49 46 42 39 37 38 41 45 50 54 55 57 61 65 68 68 70 74 76 73 76 80 79 80 87 92 95 98 100 101 98 94 98 102 99 98 99 99 98 97 95 92 89 87
55 53 59 75 90 92 85 80 79 79 80 82 83 82 78 73 68 65 63 60 57 56 56 56 58 59 59 60 59 57 53 49 47 46 47 49 51 53 56 57 58 62 65 67 71 72 72 78 83 78 74 78 84 92 98 97 98 100 101 99 94 90 96 101 99 99 102 102 102 101 99 97 94 91
59 59 63 73 87 92 87 84 83 83 88 94 94 90 83 76 74 73 70 65 63 61 59 58 58 59 60 61 62 60 57 55 56 57 58 60 60 59 59 60 63 67 69 72 78 78 74 78 85 85 82 82 86 94 98 97 98 100 99 99 98 95 98 100 96 96 102 103 102 102 101 101 99 96
69 68 65 67 81 93 93 90 88 88 92 97 97 94 88 82 79 77 74 70 68 65 62 62 62 63 65 65 66 66 65 64 64 64 65 67 69 70 70 71 73 75 77 85 91 85 76 78 88 94 97 97 96 97 99 99 101 100 97 98 102 100 100 101 96 95 101 103 102 100 100 102 102 99
87 82 74 68 77 90 94 93 92 92 95 97 95 92 89 85 82 76 69 63 60 58 59 62 65 68 70 71 71 71 71 72 74 76 78 80 82 81 80 83 84 79 80 91 100 96 87 88 95 100 102 102 98 98 100 100 100 98 93 95 101 100 100 102 97 93 99 103 101 100 101 101 100 100
99 96 84 73 73 80 85 90 94 94 94 94 92 90 85 79 71 64 60 60 63 69 75 79 81 82 81 79 78 78 81 85 89 91 92 92 92 90 88 92 92 87 86 94 102 102 99 99 100 102 102 101 98 96 96 96 97 97 95 97 100 99 100 101 98 96 100 100 99 101 102 99 99 102
101 101 92 82 79 81 83 87 90 91 91 92 92 88 80 71 68 69 75 82 88 94 98 99 99 98 94 91 91 92 95 96 99 100 100 99 99 98 97 98 98 95 96 99 101 101 102 102 102 102 100 99 99 98 96 95 96 98 98 99 99 99 100 101 100 101 101 98 98 96 89 89 97 101
100 102 100 95 94 93 92 92 91 89 89 87 82 76 70 69 77 87 95 98 99 101 103 102 101 101 101 100 100 100 101 100 100 101 102 102 102 101 101 101 101 101 100 101 101 100 99 95 91 90 89 86 85 85 84 83 84 85 89 93 95 97 99 99 98 95 90 88 85 76 74 87 98 97
100 100 100 100 100 99 100 100 97 94 90 84 80 77 77 82 89 95 100 100 101 103 103 101 98 98 101 102 100 99 99 99 96 94 93 93 93 94 94 92 91 88 84 83 82 82 82 79 76 77 79 77 76 75 73 72 72 71 74 77 78 79 80 79 76 69 64 64 59 60 79 98 100 100
100 100 101 101 102 101 101 100 100 99 96 91 89 89 90 92 95 99 101 101 100 99 99 98 94 92 92 89 84 81 80 78 73 68 64 62 61 62 63 62 62 60 57 59 63 66 71 73 70 68 63 58 56 53 48 44 42 39 38 37 38 40 40 39 37 34 37 38 37 55 92 107 101 98
100 100 101 100 100 101 101 101 101 101 99 98 98 99 98 95 94 94 94 92 90 88 86 84 80 74 69 65 60 58 56 53 51 48 45 42 40 40 40 40 41 41 40 42 44 44 45 43 38 34 29 24 22 18 15 14 12 11 12 11 12 14 13 13 14 15 18 21 21 39 68 80 75 68
98 97 97 98 99 99 99 97 95 93 90 88 90 95 98 97 92 89 86 82 78 74 69 65 60 56 52 49 47 45 42 40 38 35 33 30 28 26 25 23 22 21 20 19 18 16 15 13 11 10 8 8 8 7 7 8 7 7 8 7 7 8 8 8 9 8 10 13 13 18 29 35 33 27
97 96 93 91 90 88 86 85 83 84 85 83 82 85 88 87 82 77 73 68 63 59 55 52 48 45 43 40 37 34 30 27 24 22 20 19 16 15 14 12 11 9 9 8 8 8 8 8 8 8 8 8 9 8 8 9 8 9 9 8 9 9 8 8 9 9 10 10 11 13 13 13 15 12
91 88 83 80 78 79 82 85 86 87 87 84 80 76 72 68 64 60 56 53 50 47 45 42 39 36 32 29 26 22 19 16 14 13 12 11 11 11 11 10 10 9 9 10 10 10 11 11 11 11 12 12 11 11 12 12 12 12 11 11 12 11 11 11 10 10 11 10 10 12 10 10 12 10
87 85 83 81 80 80 80 80 78 75 72 67 64 60 57 55 52 49 47 44 41 38 35 32 29 27 23 21 19 17 15 13 11 11 11 10 11 11 11 11 11 11 11 12 12 12 12 12 12 13 13 13 13 14 13 13 13 14 14 15 16 15 15 15 13 13 14 12 12 14 13 14 12 6
87 85 82 79 75 72 70 67 64 61 59 57 55 53 51 49 46 42 39 35 31 29 27 24 22 19 17 16 15 13 12 11 10 10 10 10 10 11 11 11 11 11 12 12 13 14 14 14 14 14 14 15 15 14 15 15 15 15 16 17 19 19 19 18 17 16 15 14 16 16 14 16 16 14
83 79 76 73 70 67 65 63 60 57 55 52 49 45 42 39 35 32 29 25 23 21 19 16 15 13 12 11 10 9 9 9 9 10 10 11 12 12 12 13 13 14 15 15 15 16 16 15 15 15 14 14 14 13 14 14 14 15 16 17 19 20 19 18 18 17 15 15 15 14 13 16 18 17
82 78 74 71 68 64 60 56 53 49 46 43 39 35 31 28 24 21 19 17 15 14 12 10 10 9 8 8 8 8 9 9 9 10 10 11 13 13 14 15 16 17 17 17 17 17 17 16 16 15 14 14 13 13 13 12 12 13 13 14 15 17 17 18 17 16 15 15 12 14 21 24 19 22
74 69 65 61 57 53 49 45 42 39 36 32 29 25 22 19 16 13 12 11 10 9 8 8 7 7 8 8 9 9 10 10 10 11 11 12 13 14 15 16 16 16 16 16 16 16 15 15 14 13 13 13 11 11 11 11 11 11 10 11 13 13 14 17 17 14 15 15 13 19 33 39 40 53
61 57 54 50 47 43 39 36 32 29 26 22 19 17 14 12 10 9 8 8 8 8 8 8 8 9 9 9 10 10 10 10 10 10 10 11 11 12 12 12 12 13 12 12 13 12 12 13 13 13 13 12 12 15 14 11 11 12 11 11 11 10 12 15 15 16 17 14 14 28 50 66 78 90
49 45 42 39 35 32 29 25 23 20 16 14 12 10 8 8 7 7 7 8 8 9 10 10 11 11 11 10 10 10 9 9 9 9 9 10 10 11 12 13 13 13 12 12 12 12 13 15 17 19 20 18 21 30 31 22 15 13 11 10 10 11 12 13 13 16 15 13 24 49 74 91 100 101
35 32 30 27 23 21 19 16 14 12 10 8 8 7 7 8 8 8 9 10 11 11 12 12 12 11 10 10 9 8 8 8 9 9 11 12 14 17 18 18 19 19 20 21 22 21 23 25 26 30 33 32 33 37 34 23 17 15 13 12 12 10 9 11 14 15 15 22 42 65 81 91 98 96
25 23 20 18 15 13 11 10 9 8 7 8 8 8 9 10 11 12 12 12 13 13 12 11 10 9 8 8 8 8 9 10 11 13 16 19 23 27 29 30 34 38 41 43 44 40 35 34 36 39 41 41 41 41 36 33 32 27 18 13 12 13 14 15 13 15 25 44 63 75 83 91 96 89
16 14 13 11 10 9 8 8 8 9 10 10 11 12 13 13 13 14 14 14 13 12 10 9 8 8 8 9 10 11 12 14 17 20 23 28 35 40 40 41 47 53 55 58 62 58 45 37 39 47 55 62 65 61 55 49 43 36 30 25 22 20 18 15 19 37 61 78 84 89 96 102 100 90
10 9 9 8 8 9 10 11 12 12 13 14 14 15 15 15 15 15 14 13 11 10 8 8 8 9 11 12 13 15 17 20 24 27 29 35 45 50 48 48 54 60 62 66 73 73 64 58 61 71 84 93 90 78 66 55 47 49 54 52 46 43 41 43 58 80 91 85 78 84 95 102 101 98
9 9 10 11 12 13 14 15 15 16 16 17 17 17 17 17 16 14 12 11 9 8 8 9 11 13 15 15 16 19 23 26 29 30 30 37 50 57 53 51 58 68 72 75 80 82 79 80 86 93 100 103 98 90 85 80 75 74 71 64 65 76 83 87 94 94 79 63 64 79 94 102 102 100
12 14 15 16 17 17 17 18 18 19 19 19 19 18 17 16 14 12 10 9 8 8 10 13 16 18 19 18 18 22 28 31 31 30 31 40 54 63 59 53 60 72 78 81 89 92 88 85 89 94 98 100 100 100 101 101 100 98 90 84 87 97 101 101 98 86 68 60 71 89 101 101 92 81
Wind_Speed
13 14 14 13 14 14 15 14 14 13 12 11 9 8 9 8 6 5 4 4 4 5 5 4 4 5 6 7 8 9 8 8 8 8 8 7 7 7 6 6 6 5 5 6 6 6 7 7 8 9 9 10 10 10 10 10 10 10 9 9 10 10 11 11 11 12 12 12 12 12 11 11 11 12
15 15 15 14 15 15 16 14 14 14 13 11 10 9 9 9 7 6 5 4 5 6 6 5 6 7 8 9 10 9 9 9 9 8 8 8 8 8 8 7 7 6 6 6 6 7 7 8 9 10 10 11 11 11 11 12 12 11 11 12 12 13 13 13 12 12 12 12 12 12 12 12 12 13
15 15 15 15 15 16 16 15 14 14 13 12 11 10 9 9 7 6 6 5 6 6 7 7 8 9 9 10 10 10 9 9 10 9 9 9 9 9 9 9 8 7 7 7 7 7 8 9 10 10 11 12 12 13 13 13 13 13 14 14 15 15 15 16 16 16 16 17 16 16 15 14 15 16
14 15 16 15 16 16 15 15 15 15 14 12 12 10 10 9 7 6 7 6 6 7 8 8 10 10 11 11 11 11 10 10 10 10 9 9 10 10 10 10 9 9 9 9 9 9 9 10 11 12 13 14 14 15 15 15 15 15 15 15 16 16 16 17 19 20 21 21 21 21 20 19 20 23
15 15 16 16 16 16 15 15 15 15 14 13 12 11 10 10 8 7 8 8 7 8 10 10 11 12 12 12 12 12 12 12 11 11 10 10 11 11 12 11 11 11 12 12 12 12 12 12 13 14 15 15 16 16 17 17 17 17 17 17 17 17 18 19 20 21 21 22 23 23 23 24 26 29
15 15 16 16 15 15 15 15 15 15 14 13 12 11 11 11 8 7 10 11 9 10 11 11 12 13 13 14 14 14 14 14 13 12 12 12 12 13 13 14 14 14 15 15 15 15 15 16 17 17 18 19 19 19 19 19 20 20 19 19 19 20 20 21 21 21 21 22 23 24 26 27 30 31
15 15 16 16 15 15 16 16 16 16 14 13 13 13 13 13 10 9 12 14 12 11 11 13 14 14 14 15 16 16 16 16 15 14 14 14 14 14 15 16 16 16 16 17 16 17 17 18 19 20 21 22 22 22 22 23 23 23 23 23 22 23 24 24 24 24 24 23 24 25 27 29 32 34
16 16 16 15 15 16 17 17 17 17 15 14 14 14 15 15 12 11 14 15 14 13 13 14 15 15 15 17 18 18 18 18 18 17 16 16 16 16 16 17 18 18 18 18 18 18 19 19 20 21 22 24 25 26 26 26 27 27 27 26 26 26 27 27 28 28 27 26 26 28 30 33 35 37
17 17 17 16 17 18 18 18 19 18 16 14 14 15 17 16 14 13 15 16 16 16 15 15 17 17 17 18 20 21 20 20 20 20 19 19 18 18 18 19 20 20 20 20 20 20 20 20 21 22 23 25 26 27 28 28 29 30 30 30 30 30 30 31 31 31 30 30 30 32 35 38 40 41
18 18 18 19 19 20 19 19 19 19 17 15 14 16 18 18 16 15 16 17 18 19 18 17 19 20 20 20 22 22 22 23 23 22 22 21 21 20 21 21 22 22 22 22 22 22 21 22 23 23 24 25 26 27 28 28 30 31 31 31 32 32 33 34 35 35 35 35 36 38 41 43 44 44
19 19 19 20 21 22 21 20 21 21 19 16 15 17 20 19 18 18 17 18 20 22 21 20 21 22 22 23 23 24 24 25 25 25 24 23 23 23 23 23 23 23 24 24 24 23 22 23 24 25 26 27 28 28 29 30 31 33 33 34 35 35 36 37 38 39 39 40 41 43 45 46 46 46
20 19 20 22 23 23 22 21 22 23 20 17 16 18 20 20 21 21 20 20 22 23 24 23 24 24 25 25 26 25 25 26 27 27 26 25 26 26 25 25 25 25 25 26 26 25 25 25 26 27 28 29 30 31 31 32 34 35 37 38 39 39 39 40 41 42 42 43 44 45 46 47 48 48
20 21 22 23 24 23 23 22 22 23 22 19 18 19 20 21 22 23 23 23 24 25 26 26 26 26 27 27 28 28 27 28 28 29 28 27 27 28 28 27 26 25 26 26 27 28 28 28 29 29 30 32 33 33 34 35 36 38 40 41 43 44 44 43 44 45 46 47 48 48 49 49 49 48
22 22 23 24 24 24 24 23 22 23 23 21 20 20 22 23 24 25 26 25 25 26 27 27 27 28 28 29 29 29 30 31 31 31 30 30 29 30 30 28 27 27 28 28 29 29 30 30 30 31 33 35 36 36 37 38 39 40 42 44 45 46 47 47 47 48 49 50 51 51 51 50 50 50
22 23 23 24 25 25 25 23 22 23 23 23 22 22 24 25 25 25 27 28 28 28 29 29 29 29 30 31 31 31 32 33 33 33 33 33 33 33 33 31 31 32 33 33 32 32 32 32 33 34 35 36 39 40 41 42 41 41 42 43 45 47 49 50 50 50 51 52 53 53 52 51 51 52
24 24 24 25 25 25 25 24 23 23 24 24 25 24 25 27 27 26 27 29 30 30 30 30 30 31 32 32 33 33 33 33 34 35 35 36 37 37 36 36 36 37 37 37 36 36 36 36 36 37 37 38 40 42 43 43 43 43 45 46 48 49 50 51 53 53 53 52 52 52 52 52 53 53
26 26 26 26 26 26 26 26 26 26 26 26 26 26 26 27 28 28 28 30 31 31 31 31 31 32 33 34 35 35 35 35 35 36 37 38 39 39 39 39 40 40 41 40 39 39 40 40 40 40 41 42 43 45 45 45 47 49 50 50 50 51 51 52 53 54 53 53 52 52 53 53 54 55
28 28 27 26 27 27 28 28 28 27 27 27 27 28 28 29 30 31 31 31 31 30 31 31 32 33 34 35 36 36 36 36 37 37 38 39 40 41 41 42 41 42 43 43 42 42 43 43 42 42 44 45 46 47 48 49 51 51 49 47 49 51 51 52 53 54 53 53 53 53 54 55 56 57
28 28 27 26 26 28 28 28 28 27 27 27 28 28 30 31 32 32 32 31 31 30 31 32 33 34 35 36 37 37 37 38 39 40 40 41 42 42 43 44 43 44 45 45 46 45 45 45 45 44 45 47 47 47 49 51 52 51 47 46 49 53 53 53 56 55 52 51 52 53 54 56 57 57
28 27 27 26 26 27 28 28 28 27 27 28 29 30 31 33 33 33 32 32 32 33 34 35 36 37 38 38 39 39 40 41 41 42 43 43 44 44 45 46 46 47 48 48 48 48 47 48 49 49 49 50 50 49 50 53 54 52 50 50 53 55 54 55 56 54 50 50 50 49 50 53 54 55
30 29 27 26 26 27 28 28 28 28 29 30 31 32 33 34 34 33 33 34 35 36 37 38 39 40 40 41 41 42 43 43 44 45 45 45 46 47 48 48 48 48 49 49 50 50 50 51 52 52 52 52 52 52 53 55 56 55 53 54 54 54 54 57 57 53 49 48 48 48 50 52 52 52
34 31 29 27 27 28 29 29 30 31 32 33 33 33 34 34 34 34 35 36 37 38 39 40 41 42 43 43 44 45 45 46 46 47 47 48 49 49 49 49 48 48 49 50 52 54 54 54 54 54 55 55 55 56 57 58 58 58 57 58 58 57 58 59 57 52 51 52 52 53 54 53 53 54
36 33 30 29 29 30 31 32 33 34 35 35 35 34 34 34 34 35 36 38 39 40 41 42 43 44 44 45 45 46 47 47 48 49 49 49 50 50 50 50 51 52 53 54 55 57 57 57 57 57 59 61 61 61 62 62 61 61 62 62 61 60 60 60 59 58 58 56 53 53 55 55 56 57
36 34 32 31 31 31 32 33 34 35 36 36 35 35 35 35 36 37 38 40 41 42 42 43 43 44 44 45 46 47 47 48 49 50 50 51 52 53 53 54 56 56 56 56 58 60 60 61 61 62 65 67 67 66 66 65 64 64 65 64 64 64 63 61 59 58 57 54 51 54 57 56 54 54
36 34 33 32 32 33 33 34 35 36 36 36 36 36 37 38 38 39 40 41 41 41 41 41 42 43 44 45 46 47 48 49 50 52 53 54 55 57 57 57 58 58 58 59 62 64 66 67 67 68 69 70 70 69 68 67 66 67 68 68 66 64 61 58 55 55 56 56 58 61 62 59 56 54
34 34 34 34 33 34 34 34 35 36 36 36 37 38 39 40 40 40 40 41 41 41 41 42 43 44 45 46 48 49 50 52 53 55 57 58 59 60 61 61 62 63 64 67 69 71 73 73 73 72 72 72 71 71 71 70 70 70 70 69 67 63 61 61 62 65 65 66 67 68 66 63 60 57
33 33 34 34 34 34 35 35 36 36 37 38 39 39 40 41 42 41 41 42 43 44 46 47 49 50 50 51 52 53 53 55 56 58 60 61 62 64 65 66 68 69 70 72 73 75 75 75 75 74 74 74 74 74 73 73 72 72 71 70 69 68 69 70 72 73 72 70 70 67 62 60 59 58
32 32 33 33 33 34 36 37 37 38 39 40 40 41 42 43 44 43 44 46 47 48 50 51 53 53 53 54 55 55 56 58 59 61 63 64 64 66 67 69 70 72 73 74 75 76 77 77 77 77 77 76 76 76 75 74 73 73 71 71 70 71 71 71 71 71 69 68 66 61 58 58 60 62
31 32 33 33 33 34 36 37 38 40 40 41 41 42 44 45 46 46 48 50 51 52 53 54 55 55 55 56 56 57 59 61 62 64 66 67 68 69 70 72 73 75 76 76 77 78 78 78 78 77 76 75 74 74 73 71 70 69 68 67 67 67 67 66 65 64 63 62 61 59 58 60 61 62
32 33 35 36 37 38 39 39 40 41 42 43 43 44 45 47 48 49 51 52 53 54 55 56 56 57 58 59 60 62 63 65 67 69 70 71 72 72 73 74 75 76 76 76 76 75 74 74 73 72 71 69 68 67 67 66 65 64 62 61 61 61 60 59 58 57 57 57 56 56 57 58 58 58
36 38 39 40 41 41 41 42 42 43 45 46 47 48 49 50 51 51 52 53 54 54 55 56 58 59 60 62 64 65 67 69 71 72 73 73 75 75 76 75 75 75 74 73 72 71 69 68 68 67 66 65 64 63 62 62 61 59 58 57 56 55 54 53 52 51 51 51 52 53 54 54 53 52
39 40 41 41 41 42 43 44 45 46 46 47 48 49 49 50 51 51 52 53 54 55 57 58 60 61 63 64 66 67 69 71 72 73 73 74 75 76 76 75 74 73 72 71 69 68 66 66 66 65 64 62 61 60 59 58 57 55 54 52 51 50 48 47 47 46 47 47 48 49 49 48 47 45
41 41 41 41 41 42 43 43 44 45 45 46 47 48 49 50 52 53 54 55 57 58 59 61 62 64 66 67 69 70 71 72 72 72 73 73 72 72 72 71 70 69 68 66 65 64 63 63 62 61 60 59 58 57 55 54 53 51 49 47 45 44 42 42 42 42 43 44 44 44 44 44 43 42
41 41 41 41 41 41 42 42 43 44 46 47 48 50 51 53 54 55 57 58 60 61 63 64 66 67 68 70 71 71 71 70 70 70 70 70 69 68 68 67 66 64 63 61 60 58 58 57 57 56 55 54 53 52 51 50 49 48 46 44 42 41 40 40 40 40 40 40 40 39 39 38 38 39
40 40 41 41 41 41 42 44 45 46 48 49 51 52 53 55 56 58 59 61 62 64 65 66 67 68 69 69 70 70 70 69 68 67 67 66 66 65 65 64 63 61 59 57 55 54 53 53 52 52 51 51 50 49 48 47 46 45 44 43 42 41 40 39 39 39 39 38 37 35 35 34 34 34
40 40 41 41 42 43 44 46 47 48 49 50 52 53 55 56 57 59 61 62 64 65 66 67 67 68 68 68 68 68 68 68 67 66 66 65 64 63 62 60 59 58 56 55 54 53 52 51 51 51 50 49 49 48 47 46 45 43 42 42 41 40 40 39 39 39 38 37 35 35 34 33 31 29
40 41 42 42 43 44 46 47 48 49 51 52 53 55 56 58 59 61 62 64 65 67 67 68 68 68 68 67 67 67 67 66 65 64 63 61 60 60 59 58 57 56 56 55 54 54 53 52 51 50 49 49 48 47 47 46 45 43 42 41 40 39 39 39 39 39 38 36 35 34 32 29 26 25
42 43 43 44 45 46 47 48 50 51 52 54 55 57 58 60 61 62 63 64 64 65 65 65 65 66 66 65 65 64 63 62 61 60 58 57 57 56 57 56 56 56 56 55 55 55 54 52 51 49 48 48 46 45 45 45 44 42 41 40 39 39 39 39 39 38 36 35 34 32 29 25 24 23
44 44 45 46 47 48 49 50 51 52 54 55 57 58 59 60 61 62 62 62 62 62 62 62 62 62 62 61 60 59 58 57 56 55 54 53 52 52 52 52 53 53 53 53 53 53 51 50 49 47 45 44 41 40 41 42 41 40 39 38 37 37 38 38 38 37 35 33 32 29 25 24 24 24
44 45 46 47 48 49 50 51 52 53 54 56 57 58 58 58 58 59 59 59 59 59 59 58 58 57 56 55 55 54 53 52 50 49 48 47 46 45 46 46 47 48 47 47 47 47 46 46 44 42 40 39 38 38 39 40 39 38 37 36 36 36 36 36 35 34 33 31 29 26 24 24 26 26
44 45 46 46 47 48 49 50 51 53 53 54 54 55 55 55 55 55 56 56 56 55 54 53 52 52 51 50 49 48 47 46 45 43 42 40 39 39 40 41 40 38 37 36 36 37 37 37 37 37 36 35 35 36 37 37 36 35 34 33 33 33 33 32 31 30 29 27 25 23 23 24 25 25
43 44 45 46 47 47 48 49 50 50 50 51 51 51 52 52 52 52 52 51 51 50 49 48 47 46 45 44 44 43 42 41 39 37 36 35 34 35 36 35 32 29 29 29 29 28 27 26 27 27 28 28 30 32 33 33 32 32 30 29 29 28 28 28 27 25 24 22 20 20 22 23 22 21
43 43 44 44 45 46 46 46 47 47 47 48 48 48 49 49 49 48 48 48 47 46 45 44 42 41 40 39 39 38 37 36 35 34 33 33 33 33 32 29 27 26 25 26 25 23 19 17 16 17 19 20 21 22 23 24 24 24 22 21 21 21 21 22 21 20 19 17 17 19 21 21 19 18
41 42 42 43 43 43 44 44 44 44 44 45 45 45 45 46 46 46 45 45 43 42 40 39 38 37 37 36 35 35 34 33 33 32 32 32 32 30 28 27 27 25 24 23 22 20 16 13 12 12 13 14 13 12 12 13 14 14 13 14 15 16 17 18 18 17 16 16 16 17 18 15 14 14
40 40 41 41 41 41 41 41 41 41 41 41 42 43 44 44 44 44 43 41 40 38 36 34 34 34 34 33 33 33 32 32 32 31 31 31 30 28 26 26 26 25 23 22 21 19 16 13 12 11 11 12 11 9 8 9 9 9 10 13 15 16 17 17 16 15 14 14 14 14 13 10 10 12
Wind_Direction
239 243 245 247 250 253 255 253 253 253 248 244 235 218 221 228 225 222 226 225 226 244 263 271 271 284 292 290 288 285 283 284 285 285 288 292 298 304 306 307 309 310 308 306 306 306 306 307 308 311 313 314 315 315 315 315 315 316 319 325 332 336 336 331 322 315 311 311 311 311 311 312 313 314
239 244 246 247 250 252 253 250 247 247 244 239 229 219 220 225 224 223 227 225 228 245 265 278 282 285 288 287 283 281 280 281 282 283 286 291 295 298 298 298 299 299 298 296 298 300 302 304 306 308 308 308 307 306 307 308 311 315 320 328 333 337 340 340 336 328 322 320 319 318 317 317 318 320
239 242 244 245 246 246 248 247 244 243 239 231 226 223 221 221 219 221 227 226 235 254 269 279 285 286 286 284 281 278 275 274 276 278 283 288 291 292 292 292 294 294 291 289 289 291 295 298 300 300 300 300 300 300 303 306 310 314 317 321 324 326 329 330 330 327 322 319 316 315 314 315 319 323
238 240 241 240 239 241 244 244 241 239 231 224 225 225 221 220 215 217 231 233 240 260 270 278 286 288 286 283 279 274 271 270 272 275 279 284 287 289 290 290 289 288 286 284 283 283 286 288 289 290 291 293 293 294 297 300 303 305 307 309 310 312 313 316 319 319 318 317 315 313 313 314 317 320
237 238 238 237 236 238 239 235 231 229 224 221 224 227 226 226 219 218 238 243 239 253 268 278 285 288 286 283 279 276 273 270 270 273 277 281 284 286 287 286 287 286 285 284 284 285 286 285 284 284 284 285 286 288 289 291 293 295 296 297 298 298 300 303 307 310 312 312 312 311 310 310 312 313
238 237 237 236 235 235 232 225 221 222 223 221 224 228 231 235 232 228 246 254 246 249 268 281 286 287 286 284 282 279 276 271 270 271 272 275 277 278 281 283 284 286 287 289 291 291 290 289 288 288 287 286 284 284 284 285 286 287 288 288 289 289 290 293 297 300 302 303 304 305 304 305 306 308
238 238 237 235 233 231 228 225 222 223 224 222 226 233 237 243 244 233 245 259 262 261 272 281 285 285 285 285 284 280 276 274 273 271 270 270 272 274 278 281 284 286 289 291 292 292 291 292 292 292 291 290 289 287 286 285 284 285 285 285 285 284 285 286 289 292 294 295 297 299 300 302 303 304
240 240 241 239 234 229 228 229 229 229 229 228 233 240 244 252 254 239 244 261 272 274 274 277 281 283 283 284 284 281 278 277 276 275 274 274 274 276 279 282 284 286 288 289 290 290 292 294 295 295 294 293 292 290 289 288 287 286 286 286 285 284 284 284 285 286 287 288 289 292 295 298 300 301
241 241 243 243 239 236 234 234 236 238 239 239 241 244 248 256 260 253 253 264 274 278 277 275 277 282 283 283 284 282 280 279 277 277 277 278 279 281 282 282 282 283 285 285 286 288 290 294 296 297 296 295 293 292 291 291 290 289 288 288 287 286 285 284 284 284 283 282 283 285 289 292 295 296
241 242 244 246 246 246 244 243 244 247 249 249 249 250 255 260 264 263 263 268 273 277 279 277 276 281 284 282 281 281 280 280 278 277 277 279 281 282 280 280 280 281 283 283 284 287 290 293 294 294 294 293 292 291 291 291 290 288 288 287 286 286 285 285 284 283 281 280 280 281 284 287 290 291
239 243 247 249 250 252 252 250 252 256 256 254 252 254 260 265 267 267 266 268 270 273 278 279 277 279 282 282 280 280 280 281 281 280 280 281 282 281 280 281 282 284 285 285 286 288 289 290 290 290 290 290 290 290 291 291 289 288 287 286 285 285 284 285 284 283 282 281 280 281 282 284 286 287
238 241 245 248 251 253 255 255 257 261 260 257 253 255 261 265 268 269 267 265 267 270 275 278 278 278 280 281 281 281 280 279 280 281 283 283 283 283 283 283 284 284 285 286 287 287 286 285 285 286 287 287 288 289 290 290 290 289 288 288 287 286 286 286 286 286 285 284 283 283 284 285 286 287
240 242 245 248 251 253 255 255 258 262 264 262 259 259 262 265 268 270 270 267 268 270 273 275 277 278 278 279 281 282 281 280 280 280 280 280 281 282 283 282 281 279 279 280 282 283 283 283 285 287 288 288 288 289 290 291 291 291 291 291 290 289 289 288 289 289 288 287 287 287 287 286 287 288
245 248 249 251 253 254 255 256 257 261 265 265 263 262 263 264 266 270 272 272 272 272 274 274 276 277 278 278 280 281 281 281 280 280 280 280 280 280 280 281 278 276 275 274 275 278 281 282 284 287 288 290 290 291 291 291 292 293 293 293 293 292 292 292 293 293 292 290 290 290 289 288 289 291
247 250 252 254 256 257 258 259 260 261 264 266 265 263 263 265 267 269 272 274 274 275 275 276 277 278 278 279 279 279 280 280 281 283 283 283 282 281 282 283 282 280 279 279 280 282 284 283 284 285 287 288 289 290 291 291 291 292 292 292 292 291 291 291 292 293 292 291 290 290 289 288 289 291
250 252 254 256 258 260 262 262 261 261 261 263 265 265 266 268 269 270 271 273 274 275 276 277 279 280 279 279 279 279 280 281 282 283 283 283 284 284 286 287 287 286 286 287 288 289 288 287 287 287 287 287 287 288 289 290 289 291 293 294 292 290 288 289 291 292 291 289 288 287 287 287 288 289
253 254 255 256 257 258 258 258 258 259 260 261 264 266 267 268 269 269 268 269 271 274 277 278 280 280 280 281 281 282 282 283 282 282 282 283 284 286 287 288 289 289 289 290 291 291 290 290 290 289 289 289 288 289 290 290 290 293 296 296 293 290 289 290 293 293 291 289 288 286 286 287 288 289
255 254 254 255 255 256 256 256 258 259 261 264 266 268 268 268 268 268 268 269 272 276 278 280 280 280 280 281 282 282 281 281 280 280 281 282 283 285 287 287 288 288 288 289 288 288 288 289 289 290 290 289 289 289 290 290 292 295 296 295 293 290 289 290 293 293 291 289 287 287 287 288 289 290
258 258 258 257 257 257 257 257 258 260 262 265 266 266 266 266 266 267 269 271 274 275 276 277 277 277 277 277 278 278 277 277 277 278 278 280 281 283 284 284 284 284 284 284 285 285 286 287 286 286 285 285 286 287 288 290 291 292 293 293 292 290 288 290 291 290 287 287 287 288 289 290 290 290
262 263 263 262 261 261 259 258 259 260 262 264 264 264 264 265 266 267 269 271 273 274 275 275 275 275 275 276 276 277 277 277 277 278 278 279 280 281 280 281 281 282 283 283 284 285 286 285 284 282 281 281 282 284 286 289 289 289 289 289 288 287 287 288 289 289 288 289 290 291 292 291 290 288
263 265 265 265 264 262 260 260 260 261 263 265 266 265 265 265 266 267 269 271 273 275 276 276 277 277 277 277 277 277 278 278 279 279 280 280 280 280 280 280 281 282 283 284 284 284 284 284 282 281 280 280 279 279 281 283 284 286 288 287 285 283 282 284 288 289 287 286 288 292 294 292 289 288
260 263 265 265 262 259 257 257 258 260 263 265 265 265 265 266 268 269 271 273 275 276 277 278 278 278 278 278 278 279 279 279 279 279 279 279 279 279 280 281 281 282 284 284 283 283 284 283 281 280 281 281 279 279 279 280 282 284 283 282 282 281 281 283 286 285 281 283 289 293 293 292 291 290
257 261 264 264 262 258 256 256 257 260 262 265 265 264 265 267 268 271 273 275 276 277 278 278 278 278 278 279 279 279 278 278 278 278 278 279 279 281 282 283 284 285 286 285 284 283 283 282 281 280 281 280 278 278 279 280 281 282 281 281 281 280 279 280 279 277 278 284 289 290 291 292 293 291
255 257 261 263 262 261 260 259 260 262 264 264 264 263 264 267 269 272 274 275 277 278 278 279 279 279 280 279 278 278 277 277 278 279 280 281 282 283 285 285 286 287 286 285 283 283 283 282 281 281 280 279 279 278 279 280 281 281 281 279 278 278 278 278 278 277 278 282 284 286 289 291 289 286
252 254 258 262 263 264 264 264 264 265 265 265 264 265 267 269 271 273 274 275 276 277 278 280 281 281 281 280 279 280 280 280 282 284 285 285 286 286 287 286 286 285 285 283 282 282 282 281 281 281 281 281 280 280 279 279 278 279 279 278 278 279 279 279 280 280 281 282 283 286 288 287 283 279
252 254 257 260 262 264 265 266 266 267 267 268 268 269 271 273 274 276 277 277 278 279 281 281 282 282 282 281 282 283 284 284 285 286 286 286 285 285 285 284 283 283 282 281 281 281 281 281 282 282 282 281 281 280 279 278 277 277 277 278 280 280 279 280 282 283 284 285 285 286 286 284 279 276
254 256 258 260 262 263 265 266 267 267 268 268 270 272 274 276 277 278 279 280 281 282 283 283 284 284 284 284 284 284 283 283 282 282 281 281 281 281 281 280 280 280 280 280 280 281 281 282 282 282 281 281 281 280 280 279 279 278 278 278 278 277 278 279 281 282 283 283 283 284 282 278 275 274
259 261 263 264 264 265 266 266 267 268 269 271 273 275 277 278 279 279 279 280 281 282 282 283 284 285 285 284 284 284 283 282 281 281 281 281 281 281 280 280 280 280 280 281 281 281 281 282 282 282 282 282 282 282 282 281 281 281 280 280 279 278 278 278 279 280 280 279 279 278 275 273 275 278
260 263 266 267 267 266 266 266 266 268 270 272 275 276 277 278 279 279 280 281 282 283 284 285 286 286 286 285 285 284 283 283 282 283 283 283 283 282 282 281 281 281 281 281 281 282 282 283 283 283 283 283 283 283 283 283 282 281 281 280 279 278 278 279 278 278 277 277 276 274 272 273 276 279
258 261 263 265 266 267 268 269 270 272 274 275 276 276 277 278 279 280 281 282 283 284 285 285 286 286 286 286 286 285 285 284 284 284 284 284 283 283 282 281 281 281 282 282 282 283 283 283 283 283 283 283 283 283 283 282 281 281 280 279 278 278 278 278 278 277 277 277 276 275 274 274 276 277
260 261 263 265 268 270 272 274 275 276 277 277 278 278 279 280 280 281 281 282 283 283 284 284 285 285 285 285 285 285 285 284 284 284 284 284 284 283 283 283 283 283 284 284 284 285 285 284 284 284 283 283 283 282 282 281 281 280 280 279 278 278 279 279 278 277 277 276 275 275 274 275 275 276
264 266 268 269 271 273 275 275 276 276 277 277 278 278 279 280 280 281 282 283 283 284 284 285 285 285 286 286 286 286 286 286 286 286 286 286 286 286 286 286 286 286 286 286 286 285 285 284 283 283 283 283 282 282 281 281 281 281 281 281 280 280 279 279 278 277 276 276 275 275 275 275 275 276
266 268 269 270 272 273 273 274 275 275 276 277 278 279 281 282 283 284 285 285 286 286 287 287 288 288 288 288 288 288 288 288 288 288 288 288 288 288 288 287 287 286 286 286 285 284 283 283 282 282 281 281 280 280 280 280 280 280 281 281 281 281 280 279 278 278 278 278 278 279 280 280 279 278
267 268 269 270 271 272 274 275 276 278 279 281 282 283 284 285 286 287 287 288 288 289 289 289 289 289 289 289 289 289 289 289 289 289 289 289 289 288 288 288 288 287 286 285 284 283 282 281 280 280 279 279 279 278 278 279 279 279 280 279 279 279 279 279 279 279 280 281 283 285 286 285 284 280
268 269 271 272 274 276 278 279 280 281 283 284 285 286 286 287 288 288 288 289 289 289 289 289 289 289 289 289 289 290 290 290 290 290 291 291 290 290 290 289 288 287 286 284 283 281 280 279 278 278 277 277 277 277 277 277 277 277 277 276 276 276 277 278 278 279 281 283 286 289 290 289 287 283
272 273 275 277 278 279 281 281 282 283 284 285 286 286 287 288 288 289 289 289 289 289 290 290 290 291 291 291 292 292 292 292 292 292 291 291 290 290 289 288 287 286 284 283 282 280 279 278 277 277 277 277 277 277 277 275 274 274 273 274 274 274 274 276 277 278 280 283 286 289 291 289 284 281
276 277 278 279 280 281 281 282 284 285 286 286 287 287 288 289 289 290 290 291 291 291 291 291 291 291 292 292 293 293 292 292 292 291 291 290 289 288 288 287 286 286 285 284 283 282 281 280 279 278 278 277 276 275 274 273 272 272 272 272 271 272 272 273 274 276 279 282 285 288 289 287 282 279
279 279 280 281 281 282 283 284 285 286 287 288 289 289 290 290 290 291 291 291 292 292 292 292 292 292 292 292 292 292 292 292 292 292 291 290 290 289 289 289 288 287 287 286 285 284 283 281 280 278 276 275 274 273 271 271 270 270 269 269 269 269 270 270 272 275 278 281 284 287 287 284 282 279
280 281 282 283 283 284 285 286 287 288 288 289 289 289 289 289 289 289 290 291 291 292 293 293 293 293 293 293 293 293 293 293 293 293 293 293 292 292 291 291 291 290 289 288 286 284 282 279 277 275 273 271 269 267 267 268 267 266 265 265 266 266 267 268 271 274 277 280 284 285 281 277 277 278
281 282 283 283 284 285 286 287 287 287 287 287 287 287 287 288 289 290 290 291 292 292 293 293 294 294 294 295 295 295 296 296 296 296 295 295 295 295 295 296 296 296 295 292 289 285 281 277 274 271 269 267 265 264 265 266 266 264 262 262 262 263 265 267 270 274 277 280 282 281 276 274 275 276
281 282 283 284 284 285 285 285 285 285 285 285 286 287 288 289 290 290 291 292 293 294 294 295 296 296 297 297 298 299 299 299 298 298 298 298 299 300 302 303 304 304 304 302 298 292 285 278 272 268 265 264 264 264 265 266 266 264 261 258 259 261 264 267 270 274 277 279 280 279 278 276 275 274
280 281 282 282 282 282 283 283 284 284 285 286 287 288 289 290 291 292 293 294 295 296 297 297 298 298 299 301 302 302 301 301 301 301 301 302 303 305 307 308 309 312 314 314 311 305 295 284 275 269 267 267 267 266 266 266 266 265 262 260 261 262 264 266 270 272 275 277 278 279 279 277 272 267
278 279 279 280 281 282 283 284 285 286 286 287 289 290 291 292 293 295 296 297 298 298 298 298 300 301 303 305 305 304 303 303 303 303 303 304 306 308 308 308 310 316 319 319 318 317 310 298 285 278 276 277 275 272 269 265 262 261 261 261 261 261 262 264 266 268 271 273 275 278 279 276 267 258
277 279 280 281 282 283 284 284 285 286 287 289 290 292 293 294 296 297 298 298 298 298 299 301 303 305 307 308 308 306 304 304 303 303 303 305 308 308 307 305 308 315 320 322 322 323 321 312 300 288 283 283 281 276 269 264 261 260 259 256 256 258 260 262 264 267 270 272 272 274 275 271 259 247
278 279 280 281 282 282 283 284 286 288 289 291 292 293 294 296 297 297 297 298 298 299 301 303 306 308 310 311 311 309 305 302 301 302 303 305 308 307 303 300 301 307 313 317 320 322 321 316 310 303 299 301 302 297 283 275 273 268 258 254 257 262 264 264 266 269 269 266 264 264 261 252 242 238